Location: Halchter
(52.1430°N, 10.5455°E)
Time: 06:05:16
(UTC+00:00)

Daily predictions for brighter satellites

Satellite Brightness Start Highest point End
(mag) Time Altitude Azimuth Time Altitude Azimuth Time Altitude Azimuth
NOSS 0 Rocket 4.2 18:55:29 10° SW 19:01:44 78° WNW 19:08:00 10° NNE
COSMOS 2428 3.7 18:56:50 10° SW 19:02:26 53° NW 19:08:05 10° NNE
Cosmos 2341 Rocket 4.2 18:57:50 10° S 19:04:08 88° WNW 19:10:32 10° N
CSL-04 Debris 4.3 18:59:28 10° SSE 19:04:51 82° WSW 19:10:18 10° NNW
ATLAS 3B R/B 4.4 19:00:26 10° WNW 19:07:36 36° N 19:14:45 10° ENE
NOSS 2-1 (C) 3.7 19:05:18 10° NW 19:08:30 51° SW 19:12:35 10° SSE
Cosmos 2366 rocket 4.1 19:02:34 10° S 19:08:43 86° W 19:14:54 10° N
Cosmos 44 4.1 19:07:03 10° S 19:11:35 34° ESE 19:16:20 10° NE
Okean-O 3.5 19:07:48 10° SE 19:11:42 33° ENE 19:15:38 10° N
Cosmos 1727 Rocket 4.1 19:05:41 10° N 19:12:03 70° ENE 19:18:20 10° SSE
Cosmos 1908 Rocket 4.5 19:10:42 10° SSE 19:14:24 28° E 19:18:05 10° NNE
Cosmos 1378 Rocket 3.6 19:10:08 10° N 19:14:33 88° WSW 19:18:54 10° S
MetOp-B 4.2 19:09:29 10° SSE 19:14:49 70° ENE 19:20:10 10° NNW
Meteor 2-21 Rocket 4.5 19:10:54 10° N 19:17:03 74° ENE 19:23:14 10° SSE
SL-16 R/B 2.7 19:12:44 10° S 19:17:50 36° ESE 19:23:00 10° NE
Okean O Rocket 2.2 19:16:11 10° SE 19:20:13 39° ENE 19:24:15 10° N
Ariane Rocket 4.4 19:17:29 10° ESE 19:21:19 23° ENE 19:25:11 10° N
Cosmos 2084 Rocket 4.0 19:17:31 10° WSW 19:21:33 60° NW 19:25:40 10° NE
CZ-4 R/B 1.9 19:21:41 10° S 19:25:20 55° W 19:28:58 10° NNW
ATLAS 5 CENTAUR R/B 3.2 19:24:15 10° NNW 19:27:13 22° NNE 19:30:38 10° ENE
NOSS 3-1 (C) 4.0 19:21:06 10° NW 19:27:45 76° NE 19:35:43 12° SE
Spot 2 Rocket 3.8 19:23:34 10° SE 19:28:26 52° ENE 19:33:18 10° N
Cosmos 1140 Rocket 4.3 19:23:48 10° NNW 19:28:35 37° NE 19:32:51 12° ESE
SPOT 5 4.0 19:24:54 10° SSW 19:29:07 39° W 19:33:13 10° NNW
Cosmos 1656 Rocket 4.0 19:25:35 10° NW 19:31:00 65° WSW 19:36:28 10° SSE
NOSS 3-4 (A) 3.6 19:25:43 10° WSW 19:31:03 69° NW 19:37:07 10° NE
Cosmos 1025 Rocket 2.9 19:27:01 10° N 19:31:18 82° E 19:35:34 10° SSE
NOSS 3-4 (C) 3.6 19:26:13 10° WSW 19:31:35 70° NW 19:37:41 10° NE
Helios 1A Rocket 2.2 19:28:39 10° NNE 19:31:54 89° W 19:35:05 10° SSW
Cosmos 546 4.5 19:28:24 10° WSW 19:32:02 66° S 19:35:41 10° E
Cosmos 1733 Rocket 3.7 19:33:14 10° SSW 19:37:35 61° WNW 19:41:58 10° N
Terra 1.9 19:33:31 10° SSE 19:38:12 80° WSW 19:42:56 10° NNW
BREEZE-M DEB (TANK) 2.8 19:36:40 10° W 19:39:16 45° S 19:43:54 14° ESE
Meteor 2-8 Rocket 4.4 19:34:14 10° S 19:40:14 70° E 19:46:16 10° NNE
Cosmos 2123 Rocket 4.1 19:34:27 10° N 19:40:43 66° ENE 19:47:00 10° SSE
Cosmos 2239 Rocket 4.5 19:36:55 10° S 19:43:05 75° E 19:49:22 10° NNE
Cosmos 1821 Rocket 4.3 19:37:59 10° SSW 19:44:17 73° WNW 19:50:41 10° N
Cosmos 2237 Rocket 3.1 19:40:08 10° SW 19:45:43 55° NW 19:51:21 10° NNE
Cosmos 1174 3.8 19:46:29 10° NNW 19:49:43 44° NE 19:51:31 20° ESE
Cosmos 2058 4.2 19:47:06 10° NNE 19:50:18 23° ENE 19:52:11 17° ESE
Cosmos 2150 Rocket 4.1 19:45:50 10° S 19:50:51 55° ESE 19:55:58 10° NNE
Cosmos 1346 Rocket 3.3 19:47:33 10° NNW 19:51:05 52° W 19:54:35 10° S
Cosmos 1300 Rocket 4.0 19:48:14 12° SSE 19:51:49 40° E 19:55:52 10° NNE
BREEZE-M DEB (TANK) 2.6 19:50:54 10° WSW 19:53:21 59° S 19:58:00 12° E
COSMOS 2455 3.5 19:47:37 10° NNW 19:53:25 46° NE 19:58:10 15° ESE
Cosmos 1602 3.0 19:55:57 10° NNW 19:58:12 52° W 19:59:39 18° S
SL-4 R/B 3.7 19:56:34 10° S 19:57:34 14° S 19:57:34 14° S
Cosmos 1400 Rocket 4.2 19:55:49 10° SW 19:59:10 37° WNW 20:02:36 10° N
Cosmos 1812 4.0 19:59:01 10° WSW 20:00:09 15° WNW 20:01:16 10° NNW
SJ 16-02 3.1 19:58:30 10° N 20:01:35 19° NE 20:04:02 13° E
USA 59 Rocket 2.2 20:01:09 10° W 20:03:21 15° WSW 20:05:52 10° SSW
SWAS 4.3 19:59:42 10° NNW 20:03:47 89° WSW 20:06:21 22° SSE
ASTEX 1 3.4 19:59:51 10° S 20:04:46 90° W 20:09:45 10° N
Gbstr 26 Del rocket 4.3 20:02:23 10° SSW 20:06:11 22° SE 20:06:31 21° SE
Cosmos 2297 3.8 20:00:30 10° NNW 20:06:17 79° WSW 20:10:43 17° SSE
Cosmos 1605 Rocket 4.4 20:02:58 16° SSE 20:07:31 43° E 20:13:16 10° NNE
Cosmos 1869 2.9 20:06:01 15° S 20:08:50 65° E 20:12:24 10° NNE
Cosmos 1315 Rocket 3.3 20:08:55 25° SE 20:10:27 36° E 20:13:55 10° NNE
Cosmos 2369 Rocket 2.4 20:05:04 10° NW 20:10:37 67° WSW 20:15:00 17° SSE
SPOT 3 Rocket 3.7 20:08:17 20° SE 20:11:52 63° ENE 20:16:59 10° N
ADEOS 4.5 20:07:41 10° S 20:12:42 47° W 20:17:45 10° NNW
SL-08 R/B 3.5 20:08:07 10° NNE 20:13:04 83° WNW 20:17:58 10° SSW
USA 186 1.7 20:14:08 28° SSW 20:15:01 47° W 20:17:20 10° NNW
Lacrosse 5 rocket 1.5 20:14:41 10° WNW 20:17:47 45° NNE 20:19:32 21° E
USA 234 3.3 20:11:41 10° ENE 20:18:10 60° SE 20:24:37 10° SW
YAOGAN 11 4.0 20:14:07 10° NNE 20:18:25 82° ESE 20:22:45 10° SSW
Cosmos 2221 Rocket 4.3 20:14:10 10° NNW 20:18:27 51° W 20:22:40 10° S
RESURS DK-1 4.5 20:15:00 10° WSW 20:18:29 29° NW 20:21:59 10° NNE
SeaSat 1 4.3 20:17:16 10° E 20:20:52 21° NE 20:24:29 10° NNW
Cosmos 2285 Rocket 4.0 20:15:35 10° SSW 20:21:57 86° ESE 20:28:19 10° NNE
Cosmos 405 Rocket 2.0 20:20:24 10° NNW 20:23:22 76° WSW 20:24:26 35° S
NOSS 3-1 (A) 4.0 20:20:45 10° NW 20:27:31 81° NE 20:33:20 22° SE
Cosmos 921 Rocket 3.1 20:23:43 10° NNW 20:28:08 65° ENE 20:30:06 31° SE
Cosmos 1943 3.4 20:23:23 10° S 20:28:46 48° ESE 20:34:13 10° NE
CZ-4B R/B 2.3 20:27:34 33° SSE 20:29:00 89° ENE 20:32:23 10° NNW
Molniya-1 3.6 20:26:37 10° SW 20:29:32 84° SE 20:36:55 10° NE
Cosmos 1023 Rocket 4.5 20:25:31 10° NNW 20:30:37 78° WSW 20:33:37 25° SSE
Cosmos 2346 Rocket 4.5 20:26:34 10° N 20:32:44 70° ENE 20:36:35 24° SSE
Cosmos 1975 Rocket 3.0 20:29:18 10° N 20:33:46 83° E 20:35:59 29° SSE
SL-8 R/B 3.8 20:29:13 10° WSW 20:33:48 51° S 20:36:05 27° ESE
IRS-1C Rocket 4.1 20:31:47 25° SSE 20:34:53 78° ENE 20:40:12 10° NNW
Helios 1B rocket 4.1 20:35:11 15° ENE 20:35:53 16° ENE 20:38:06 10° NNE
Cosmos 1356 Rocket 3.4 20:36:35 35° SSE 20:37:56 53° E 20:41:51 10° NNE
CZ-2C R/B 1.8 20:44:39 71° S 20:44:55 88° WSW 20:47:48 10° NNW
Cosmos 304 Rocket 3.9 20:40:36 10° NNW 20:45:20 61° ENE 20:47:13 34° SE
Okean-O 4.0 20:44:32 13° SSW 20:47:57 35° W 20:51:59 10° NNW
Cosmos 44 4.1 20:47:26 10° WSW 20:52:31 58° NW 20:57:51 10° NE
Okean O Rocket 3.3 20:53:05 12° SSW 20:56:30 28° W 21:00:14 10° NW
CZ-4B R/B 3.6 20:55:25 28° S 20:57:51 61° WSW 21:02:35 10° NNW
Geosat 4.4 20:54:16 10° NNE 20:59:14 66° NW 21:04:11 10° SW
Ariane Rocket 3.1 20:57:13 30° S 20:59:45 70° WSW 21:04:48 10° NNW
ATLAS 3B R/B 4.1 20:52:56 10° NW 21:00:19 41° NNE 21:07:29 10° E
Cosmos 1656 4.1 20:55:14 10° NNW 21:00:34 51° NE 21:02:57 30° ESE
SL-16 R/B 3.1 20:56:19 10° SW 21:01:49 50° NW 21:07:22 10° NNE
Cosmos 1782 Rocket 4.2 20:58:38 15° SSW 21:02:06 52° WNW 21:06:20 10° N
ATLAS 5 CENTAUR R/B 1.5 21:05:48 10° NW 21:09:45 76° NE 21:11:03 46° ESE
Cosmos 1140 Rocket 4.3 21:05:32 10° NW 21:10:21 42° WSW 21:12:46 25° SSW
Cosmos 1954 Rocket 4.4 21:10:17 10° NNW 21:15:24 51° ENE 21:17:07 36° ESE
Terra 4.5 21:14:41 10° WSW 21:16:31 12° W 21:18:23 10° WNW
Cosmos 1818 3.6 21:15:49 10° NW 21:21:19 75° NE 21:23:15 41° ESE
Cosmos 1862 4.3 21:18:48 10° NNW 21:22:06 34° W 21:22:56 30° WSW
Cosmos 1153 Rocket 4.4 21:22:56 31° S 21:26:07 87° E 21:32:28 10° N
Sich 1 Rocket 4.4 21:26:27 35° E 21:26:27 35° E 21:30:19 10° NNE
Cosmos 2058 3.9 21:22:50 10° NNW 21:26:28 37° W 21:27:31 31° SW
ALOS 2 4.2 21:26:08 22° E 21:27:03 24° ENE 21:30:33 10° N
Cosmos 407 Rocket 3.7 21:22:23 10° NNW 21:27:25 59° WSW 21:28:58 41° SSW
Cosmos 1459 Rocket 4.1 21:26:51 40° SSE 21:28:58 58° E 21:35:07 10° NNE
Cosmos 371 Rocket 3.5 21:27:21 10° NNW 21:32:09 63° WSW 21:33:16 48° SSW
ARIANE 5 R/B 3.7 21:32:43 29° E 21:33:23 31° ENE 21:37:14 10° N
ATLAS 2AS CENTAUR R/B 3.8 21:38:07 25° ESE 21:38:07 25° ESE 21:43:01 10° ENE
Meteor 2-1 Rocket 4.4 21:37:34 46° SE 21:38:57 58° E 21:44:36 10° NNE
ARIANE 6 FM1 Upper Stage 3.6 21:35:15 10° NW 21:39:03 40° NNE 21:40:04 33° ENE
COSMOS 2455 3.3 21:33:40 10° NW 21:39:27 49° WSW 21:41:17 37° SSW
SJ 16-02 1.2 21:35:54 10° NNW 21:40:10 71° WSW 21:40:32 66° SSW
Cosmos 2056 Rocket 4.3 21:40:33 36° ESE 21:40:33 36° ESE 21:45:26 10° NE
Cosmos 2251 Rocket 3.5 21:36:48 10° NNW 21:42:10 87° WSW 21:43:27 54° SSE
Cosmos 1802 Rocket 4.2 21:40:52 43° SE 21:42:34 55° E 21:48:39 10° NNE
Cosmos 1536 Rocket 3.5 21:40:44 10° NNW 21:45:01 71° W 21:45:30 64° SW
IKONOS-2 4.3 21:45:01 10° NNE 21:49:08 81° ESE 21:49:08 81° ESE
Cosmos 1743 4.1 21:48:40 10° N 21:50:20 24° NNE 21:50:20 24° NNE
Cosmos 1816 Rocket 4.4 21:45:31 10° N 21:51:42 90° NNE 21:53:36 48° S
CSL-04 DEB 4.4 21:53:15 63° NNW 21:53:15 63° NNW 21:56:16 10° NNW
Lacrosse 5 rocket 2.7 21:51:20 10° WNW 21:52:47 23° W 21:52:47 23° W
Cosmos 2016 Rocket 4.1 21:55:13 46° SE 21:56:49 60° E 22:03:01 10° NNE
SeaSat 1 2.4 21:56:42 58° ESE 21:57:37 76° NE 22:02:33 10° NNW
USA 234 3.5 21:54:48 10° ENE 22:01:20 72° NNW 22:07:51 10° W
Cosmos 1697 Rocket 3.1 21:58:10 10° NNW 22:03:44 56° NE 22:05:24 41° ESE
Cosmos 2173 Rocket 3.9 22:03:22 42° SSW 22:05:32 79° W 22:11:42 10° N
Helios 1B rocket 2.9 22:09:10 46° WNW 22:09:10 46° WNW 22:12:01 10° NNW
Cosmos 1892 Rocket 3.5 22:04:35 10° N 22:09:00 76° ENE 22:09:00 76° ENE
Cosmos 1782 4.3 22:11:12 24° NE 22:11:12 24° NE 22:13:03 10° NNE
Cosmos 1603 3.9 22:07:59 31° SW 22:10:47 71° WNW 22:16:31 10° NNE
Meteor 2-3 Rocket 4.0 22:07:14 10° NNW 22:12:44 58° W 22:14:03 46° SW
Cosmos 1943 4.4 22:07:36 10° WSW 22:12:56 40° NW 22:18:16 10° NNE
Cosmos 2151 Rocket 4.2 22:17:04 43° WSW 22:17:48 48° WNW 22:22:03 10° N
Okean 1 Rocket 3.1 22:17:47 67° W 22:17:58 68° WNW 22:22:20 10° N
Helios 1A 3.5 22:17:59 10° N 22:21:50 49° WNW 22:22:03 48° W
Cosmos 1371 Rocket 3.9 22:23:19 68° SE 22:23:38 70° ESE 22:28:56 10° NNE
Cosmos 1980 Rocket 3.1 22:18:53 10° NNW 22:24:19 42° NE 22:26:39 29° E
Okean 2 Rocket 3.5 22:24:29 50° W 22:24:58 53° WNW 22:29:23 10° N
Cosmos 968 Rocket 3.4 22:21:23 10° NNW 22:26:39 81° ENE 22:27:16 69° SE
MetOp-A 4.4 22:27:45 46° E 22:28:33 50° ENE 22:33:30 10° N
Cosmos 1455 Rocket 3.0 22:28:48 78° NE 22:28:48 78° NE 22:33:01 10° NNE
Cosmos 2100 Rocket 4.5 22:26:44 33° SW 22:29:19 54° WNW 22:35:27 10° N
CZ-2C R/B 3.6 22:25:19 10° NNE 22:29:25 70° ENE 22:29:25 70° ENE
Tsikada Rocket 3.9 22:24:25 10° N 22:30:45 87° WSW 22:32:10 57° S
Cosmos 1741 Rocket 4.2 22:30:01 10° NNW 22:35:19 64° ENE 22:36:11 55° ESE
Cosmos 2061 Rocket 3.9 22:35:46 57° SSE 22:36:59 73° E 22:43:11 10° NNE
Meteor 1-27 4.2 22:40:55 64° S 22:41:53 88° E 22:47:37 10° NNE
Cosmos 1758 Rocket 4.0 22:40:35 10° N 22:44:33 53° ENE 22:44:33 53° ENE
Cosmos 332 Rocket 4.3 22:45:45 10° NW 22:50:07 45° W 22:50:07 45° W
ATLAS 5 CENTAUR R/B 3.5 22:48:17 10° WNW 22:50:10 19° W 22:50:10 19° W
ATLAS 3B R/B 3.0 22:44:14 10° NW 22:52:10 81° NE 22:55:41 36° SE
Cosmos 1867 4.3 22:54:03 38° E 22:54:03 38° E 22:58:22 10° NE
Cosmos 2333 Rocket 4.3 22:50:50 10° NNW 22:55:17 23° NE 22:59:42 10° E
Aureole 3 Rocket 3.5 22:58:44 72° S 22:59:18 84° E 23:06:04 10° NNE
Cosmos 1833 Rocket 2.5 23:01:17 71° S 23:01:49 80° ESE 23:07:28 10° NNE
Cosmos 2082 Rocket 3.8 23:02:51 21° E 23:02:51 21° E 23:07:02 10° NE
ALOS 2 3.1 23:03:31 50° W 23:03:31 50° W 23:07:25 10° NNW
BREEZE-M R/B 4.1 22:56:52 10° W 23:05:07 81° S 23:10:50 10° E
CZ-2C R/B 3.3 23:03:43 10° NNE 23:08:54 57° E 23:09:16 56° ESE
ARIANE 5 R/B 3.6 23:10:04 35° W 23:10:04 35° W 23:13:41 10° NNW
Cosmos 1602 Rocket 3.8 23:10:07 10° N 23:14:04 60° NE 23:14:04 60° NE
PSLV R/B 3.7 23:10:54 10° N 23:14:37 65° NNW 23:14:37 65° NNW
ARIANE 6 FM1 Upper Stage 4.4 23:14:18 10° WNW 23:16:01 23° WNW 23:16:01 23° WNW
Cosmos 2228 3.6 23:18:31 49° WNW 23:18:31 49° WNW 23:22:16 10° N
USA 229 DEB 4.0 23:10:54 10° NW 23:18:15 68° SW 23:20:33 48° S
USA 229 4.0 23:10:57 10° NW 23:18:20 69° SW 23:20:40 48° S
Cosmos 1850 Rocket 4.1 23:15:05 10° NNW 23:20:06 59° WSW 23:20:06 59° WSW
Cosmos 2233 Rocket 4.5 23:18:32 40° WSW 23:20:23 53° WNW 23:26:30 10° N
Cosmos 1900 4.3 23:22:36 73° E 23:22:36 73° E 23:27:19 10° NE
Cosmos 2056 Rocket 4.4 23:20:45 34° WSW 23:22:30 45° NW 23:27:42 10° NNE
SL-16 R/B 3.8 23:17:44 10° NNW 23:22:48 32° NE 23:27:50 10° ESE
Landsat 5 4.2 23:21:22 10° NNE 23:24:55 44° ENE 23:24:55 44° ENE
ATLAS 2AS CENTAUR R/B 2.6 23:25:29 47° SW 23:27:46 89° SE 23:34:38 10° NE
Cosmos 1331 Rocket 3.8 23:27:28 76° SW 23:27:54 86° WNW 23:33:12 10° NNE
CZ-2C R/B 2.5 23:29:07 70° S 23:29:46 86° WSW 23:35:13 10° NNW
SeaSat 1 4.1 23:36:18 20° W 23:36:18 20° W 23:39:10 10° WNW
Cosmos 1626 Rocket 4.4 23:32:29 10° NNW 23:35:57 41° WNW 23:35:57 41° WNW
Cosmos 2098 Rocket 3.7 23:36:56 60° SE 23:37:40 67° E 23:43:13 10° NNE
Cosmos 2237 4.5 23:35:58 10° NNW 23:41:42 65° NE 23:43:42 40° ESE
Nadezhda 4 Rocket 3.8 23:35:38 10° N 23:41:50 88° W 23:43:04 60° S
ACS3 Solar Sail 2.8 23:37:32 10° NNE 23:43:01 34° E 23:44:42 30° ESE
Timation 1 Rocket 4.2 23:42:55 64° S 23:43:53 81° ESE 23:49:56 10° NE
USA 234 3.8 23:37:39 10° E 23:44:02 59° N 23:50:28 10° WNW
Meteor 1-25 Rocket 4.1 23:38:15 10° NNW 23:44:05 77° W 23:44:52 65° SSW
Cosmos 1110 Rocket 4.2 23:44:35 54° WSW 23:45:26 62° WNW 23:50:44 10° NNE
Cosmos 1697 Rocket 3.7 23:42:30 10° NW 23:47:06 31° W 23:47:06 31° W
Cosmos 2151 4.0 23:49:31 10° NNW 23:52:40 37° WNW 23:52:40 37° WNW
Cosmos 1606 Rocket 3.7 23:55:25 64° E 23:55:25 64° E 23:59:37 10° NNE
